Time,TemperatureF,DewpointF,PressureIn,WindDirection,WindDirectionDegrees,WindSpeedMPH,WindSpeedGustMPH,Humidity,HourlyPrecipIn,Conditions,Clouds,dailyrainin,SolarRadiationWatts/m^2,SoftwareType,DateUTC
2013-02-08 00:07:00,71.0,-99.9,29.96,East,81,0.0,1.0,0,0.00,,,0.00,0,weatherlink.com 1.10,2013-02-08 04:07:00,
2013-02-08 00:22:00,71.1,-99.9,29.96,East,81,1.0,2.0,0,0.00,,,0.00,0,weatherlink.com 1.10,2013-02-08 04:22:00,
2013-02-08 00:37:00,71.0,-99.9,29.96,East,80,0.0,1.0,0,0.00,,,0.00,0,weatherlink.com 1.10,2013-02-08 04:37:00,
2013-02-08 00:53:00,70.9,-99.9,29.95,East,80,0.0,0.0,0,0.00,,,0.00,0,weatherlink.com 1.10,2013-02-08 04:53:00,
2013-02-08 01:08:00,70.8,-99.9,29.95,East,81,0.0,0.0,0,0.00,,,0.00,0,weatherlink.com 1.10,2013-02-08 05:08:00,
2013-02-08 01:23:00,70.8,-99.9,29.95,East,80,0.0,0.0,0,0.00,,,0.00,0,weatherlink.com 1.10,2013-02-08 05:23:00,
2013-02-08 01:38:00,70.8,-99.9,29.94,East,81,0.0,3.0,0,0.00,,,0.00,0,weatherlink.com 1.10,2013-02-08 05:38:00,
2013-02-08 01:53:00,70.5,-99.9,29.93,East,80,0.0,1.0,0,0.00,,,0.00,0,weatherlink.com 1.10,2013-02-08 05:53:00,
2013-02-08 02:08:00,70.2,-99.9,29.93,East,81,0.0,1.0,0,0.00,,,0.00,0,weatherlink.com 1.10,2013-02-08 06:08:00,
2013-02-08 02:23:00,70.4,-99.9,29.92,East,81,0.0,2.0,0,0.00,,,0.00,0,weatherlink.com 1.10,2013-02-08 06:23:00,
2013-02-08 02:38:00,70.6,-99.9,29.92,SE,145,2.0,5.0,0,0.00,,,0.00,0,weatherlink.com 1.10,2013-02-08 06:38:00,
2013-02-08 02:53:00,70.4,-99.9,29.91,ESE,107,0.0,4.0,0,0.00,,,0.00,0,weatherlink.com 1.10,2013-02-08 06:53:00,
2013-02-08 03:08:00,70.4,-99.9,29.91,ESE,119,1.0,3.0,0,0.00,,,0.00,0,weatherlink.com 1.10,2013-02-08 07:08:00,
2013-02-08 03:23:00,70.1,-99.9,29.90,ESE,119,0.0,3.0,0,0.00,,,0.00,0,weatherlink.com 1.10,2013-02-08 07:23:00,
2013-02-08 03:39:00,69.8,-99.9,29.91,ESE,115,0.0,4.0,0,0.00,,,0.00,0,weatherlink.com 1.10,2013-02-08 07:39:00,
2013-02-08 03:53:00,69.7,-99.9,29.90,ESE,115,0.0,1.0,0,0.00,,,0.00,0,weatherlink.com 1.10,2013-02-08 07:53:00,
2013-02-08 04:09:00,69.8,-99.9,29.91,ESE,123,0.0,3.0,0,0.00,,,0.00,0,weatherlink.com 1.10,2013-02-08 08:09:00,
2013-02-08 04:24:00,69.8,-99.9,29.91,ESE,123,0.0,3.0,0,0.00,,,0.00,0,weatherlink.com 1.10,2013-02-08 08:24:00,
2013-02-08 04:39:00,69.9,-99.9,29.90,ESE,123,0.0,3.0,0,0.00,,,0.00,0,weatherlink.com 1.10,2013-02-08 08:39:00,
2013-02-08 04:54:00,70.2,-99.9,29.90,ESE,123,0.0,2.0,0,0.00,,,0.00,0,weatherlink.com 1.10,2013-02-08 08:54:00,
2013-02-08 05:09:00,70.1,-99.9,29.91,ESE,123,0.0,1.0,0,0.00,,,0.00,0,weatherlink.com 1.10,2013-02-08 09:09:00,
2013-02-08 05:24:00,70.0,-99.9,29.91,ESE,123,0.0,1.0,0,0.00,,,0.00,0,weatherlink.com 1.10,2013-02-08 09:24:00,
2013-02-08 05:39:00,69.7,-99.9,29.91,ESE,123,0.0,2.0,0,0.00,,,0.00,0,weatherlink.com 1.10,2013-02-08 09:39:00,
2013-02-08 05:54:00,69.7,-99.9,29.91,SSW,194,2.0,3.0,0,0.00,,,0.00,0,weatherlink.com 1.10,2013-02-08 09:54:00,
2013-02-08 06:09:00,69.8,-99.9,29.92,SSW,194,2.0,3.0,0,0.00,,,0.00,0,weatherlink.com 1.10,2013-02-08 10:09:00,
2013-02-08 06:24:00,69.7,-99.9,29.92,SSW,194,0.0,2.0,0,0.00,,,0.00,0,weatherlink.com 1.10,2013-02-08 10:24:00,
2013-02-08 06:39:00,69.8,-99.9,29.93,SSW,194,0.0,0.0,0,0.00,,,0.00,0,weatherlink.com 1.10,2013-02-08 10:39:00,
2013-02-08 06:54:00,69.9,-99.9,29.93,SSW,194,0.0,1.0,0,0.00,,,0.00,0,weatherlink.com 1.10,2013-02-08 10:54:00,
2013-02-08 07:10:00,70.3,-99.9,29.94,SE,134,0.0,2.0,0,0.00,,,0.00,12,weatherlink.com 1.10,2013-02-08 11:10:00,
2013-02-08 07:25:00,70.6,-99.9,29.94,SE,137,0.0,5.0,0,0.02,,,0.02,19,weatherlink.com 1.10,2013-02-08 11:25:00,
2013-02-08 07:40:00,70.8,-99.9,29.95,East,83,0.0,4.0,0,0.02,,,0.02,42,weatherlink.com 1.10,2013-02-08 11:40:00,
2013-02-08 07:55:00,70.6,-99.9,29.95,ENE,57,0.0,2.0,0,0.02,,,0.02,72,weatherlink.com 1.10,2013-02-08 11:55:00,
2013-02-08 08:10:00,71.2,-99.9,29.96,East,94,0.0,2.0,0,0.02,,,0.02,246,weatherlink.com 1.10,2013-02-08 12:10:00,
2013-02-08 08:25:00,71.0,-99.9,29.96,East,94,0.0,1.0,0,0.00,,,0.02,74,weatherlink.com 1.10,2013-02-08 12:25:00,
2013-02-08 08:40:00,71.5,-99.9,29.96,East,94,0.0,1.0,0,0.00,,,0.02,149,weatherlink.com 1.10,2013-02-08 12:40:00,
2013-02-08 08:55:00,71.8,-99.9,29.97,North,349,0.0,1.0,0,0.00,,,0.02,169,weatherlink.com 1.10,2013-02-08 12:55:00,
2013-02-08 09:10:00,73.8,-99.9,29.98,ESE,112,0.0,4.0,0,0.00,,,0.02,490,weatherlink.com 1.10,2013-02-08 13:10:00,
2013-02-08 09:25:00,75.4,-99.9,29.98,ENE,65,0.0,6.0,0,0.01,,,0.03,204,weatherlink.com 1.10,2013-02-08 13:25:00,
2013-02-08 09:40:00,75.5,-99.9,29.99,South,186,2.0,8.0,0,0.01,,,0.03,394,weatherlink.com 1.10,2013-02-08 13:40:00,
2013-02-08 09:59:00,74.8,-99.9,29.99,SSW,194,5.0,15.0,0,0.01,,,0.03,772,weatherlink.com 1.10,2013-02-08 13:59:00,
2013-02-08 10:11:00,77.0,-99.9,29.99,ESE,105,3.0,9.0,0,0.01,,,0.03,656,weatherlink.com 1.10,2013-02-08 14:11:00,
2013-02-08 10:26:00,77.2,-99.9,30.00,ENE,62,1.0,8.0,0,0.00,,,0.03,724,weatherlink.com 1.10,2013-02-08 14:26:00,
2013-02-08 10:40:00,78.7,-99.9,30.00,East,101,3.0,7.0,0,0.00,,,0.03,733,weatherlink.com 1.10,2013-02-08 14:40:00,
2013-02-08 10:55:00,80.9,-99.9,30.00,SE,124,5.0,7.0,0,0.00,,,0.03,789,weatherlink.com 1.10,2013-02-08 14:55:00,
2013-02-08 11:10:00,80.2,-99.9,29.99,East,84,0.0,10.0,0,0.00,,,0.03,239,weatherlink.com 1.10,2013-02-08 15:10:00,
2013-02-08 11:25:00,80.2,-99.9,29.98,ENE,71,4.0,10.0,0,0.00,,,0.03,867,weatherlink.com 1.10,2013-02-08 15:25:00,
2013-02-08 11:40:00,80.7,-99.9,29.98,NE,49,2.0,10.0,0,0.00,,,0.03,882,weatherlink.com 1.10,2013-02-08 15:40:00,
2013-02-08 11:55:00,81.0,8.0,29.98,East,86,3.0,9.0,6,0.00,,,0.03,940,weatherlink.com 1.10,2013-02-08 15:55:00,
2013-02-08 12:10:00,81.4,-15.0,29.97,NE,49,5.0,10.0,2,0.00,,,0.03,1065,weatherlink.com 1.10,2013-02-08 16:10:00,
2013-02-08 12:25:00,80.6,25.0,29.97,ENE,61,4.0,12.0,13,0.00,,,0.03,294,weatherlink.com 1.10,2013-02-08 16:25:00,
2013-02-08 12:41:00,78.0,-99.9,29.96,SSE,149,0.0,6.0,0,0.00,,,0.03,283,weatherlink.com 1.10,2013-02-08 16:41:00,
2013-02-08 12:59:00,81.0,-99.9,29.95,SSE,155,1.0,8.0,0,0.00,,,0.03,206,weatherlink.com 1.10,2013-02-08 16:59:00,
2013-02-08 13:11:00,81.0,47.0,29.95,ESE,103,4.0,14.0,30,0.00,,,0.03,946,weatherlink.com 1.10,2013-02-08 17:11:00,
2013-02-08 13:26:00,80.5,21.0,29.94,ESE,122,2.0,13.0,11,0.00,,,0.03,193,weatherlink.com 1.10,2013-02-08 17:26:00,
2013-02-08 13:41:00,77.2,-99.9,29.94,East,90,3.0,15.0,0,0.00,,,0.03,207,weatherlink.com 1.10,2013-02-08 17:41:00,
2013-02-08 13:56:00,75.7,-99.9,29.94,ESE,111,2.0,9.0,0,0.00,,,0.03,1021,weatherlink.com 1.10,2013-02-08 17:56:00,
2013-02-08 14:11:00,75.9,-99.9,29.93,SSE,167,3.0,10.0,0,0.00,,,0.03,571,weatherlink.com 1.10,2013-02-08 18:11:00,
2013-02-08 14:26:00,75.8,-99.9,29.93,NNW,346,1.0,7.0,0,0.00,,,0.03,338,weatherlink.com 1.10,2013-02-08 18:26:00,
2013-02-08 14:41:00,76.1,-99.9,29.92,SSE,166,0.0,6.0,0,0.00,,,0.03,285,weatherlink.com 1.10,2013-02-08 18:41:00,
2013-02-08 14:56:00,77.4,-99.9,29.92,ESE,111,1.0,10.0,0,0.00,,,0.03,369,weatherlink.com 1.10,2013-02-08 18:56:00,
2013-02-08 15:11:00,78.7,-99.9,29.91,South,175,3.0,9.0,0,0.00,,,0.03,401,weatherlink.com 1.10,2013-02-08 19:11:00,
2013-02-08 15:26:00,80.7,32.0,29.91,South,186,1.0,10.0,17,0.00,,,0.03,652,weatherlink.com 1.10,2013-02-08 19:26:00,
2013-02-08 15:42:00,80.8,29.0,29.91,East,91,2.0,7.0,15,0.00,,,0.03,647,weatherlink.com 1.10,2013-02-08 19:42:00,
2013-02-08 15:57:00,80.4,33.0,29.91,South,171,0.0,11.0,18,0.00,,,0.03,513,weatherlink.com 1.10,2013-02-08 19:57:00,
2013-02-08 16:12:00,80.2,41.0,29.91,East,92,0.0,8.0,25,0.00,,,0.03,468,weatherlink.com 1.10,2013-02-08 20:12:00,
2013-02-08 16:27:00,80.3,45.0,29.91,South,181,7.0,8.0,29,0.00,,,0.03,410,weatherlink.com 1.10,2013-02-08 20:27:00,
2013-02-08 16:42:00,79.5,26.0,29.92,South,188,3.0,11.0,14,0.00,,,0.03,424,weatherlink.com 1.10,2013-02-08 20:42:00,
2013-02-08 16:57:00,79.4,28.0,29.92,ESE,102,0.0,8.0,15,0.00,,,0.03,295,weatherlink.com 1.10,2013-02-08 20:57:00,
2013-02-08 17:12:00,79.7,21.0,29.92,SE,142,1.0,5.0,11,0.00,,,0.03,258,weatherlink.com 1.10,2013-02-08 21:12:00,
2013-02-08 17:27:00,79.0,-99.9,29.92,East,90,2.0,4.0,0,0.00,,,0.03,174,weatherlink.com 1.10,2013-02-08 21:27:00,
2013-02-08 17:42:00,77.0,-99.9,29.93,East,100,0.0,6.0,0,0.00,,,0.03,32,weatherlink.com 1.10,2013-02-08 21:42:00,
2013-02-08 17:59:00,74.9,-99.9,29.93,SSE,161,0.0,8.0,0,0.00,,,0.03,26,weatherlink.com 1.10,2013-02-08 21:59:00,
2013-02-08 18:12:00,73.7,-99.9,29.93,SSE,148,0.0,5.0,0,0.00,,,0.03,9,weatherlink.com 1.10,2013-02-08 22:12:00,
2013-02-08 18:27:00,73.0,-99.9,29.93,SE,128,2.0,8.0,0,0.00,,,0.03,0,weatherlink.com 1.10,2013-02-08 22:27:00,
2013-02-08 18:42:00,72.6,-99.9,29.93,SE,136,1.0,4.0,0,0.00,,,0.03,0,weatherlink.com 1.10,2013-02-08 22:42:00,
2013-02-08 18:58:00,72.4,-99.9,29.94,ESE,121,1.0,4.0,0,0.00,,,0.03,0,weatherlink.com 1.10,2013-02-08 22:58:00,
2013-02-08 19:13:00,72.2,-99.9,29.94,South,180,0.0,5.0,0,0.00,,,0.03,0,weatherlink.com 1.10,2013-02-08 23:13:00,
2013-02-08 19:28:00,72.1,-99.9,29.94,ESE,107,1.0,4.0,0,0.00,,,0.03,0,weatherlink.com 1.10,2013-02-08 23:28:00,
2013-02-08 19:43:00,71.9,-99.9,29.95,South,170,0.0,3.0,0,0.00,,,0.03,0,weatherlink.com 1.10,2013-02-08 23:43:00,
2013-02-08 19:58:00,71.8,-99.9,29.96,ESE,108,0.0,3.0,0,0.00,,,0.03,0,weatherlink.com 1.10,2013-02-08 23:58:00,
2013-02-08 20:15:00,71.7,-99.9,29.96,East,92,1.0,2.0,0,0.00,,,0.03,0,weatherlink.com 1.10,2013-02-09 00:15:00,
2013-02-08 20:29:00,71.6,-99.9,29.97,ESE,107,3.0,5.0,0,0.00,,,0.03,0,weatherlink.com 1.10,2013-02-09 00:29:00,
2013-02-08 21:08:00,71.5,-99.9,29.98,SE,133,1.0,4.0,0,0.00,,,0.03,0,weatherlink.com 1.10,2013-02-09 01:08:00,
2013-02-08 21:14:00,71.5,-99.9,29.98,ESE,115,1.0,5.0,0,0.00,,,0.03,0,weatherlink.com 1.10,2013-02-09 01:14:00,
2013-02-08 21:29:00,71.5,-99.9,29.98,East,100,0.0,5.0,0,0.00,,,0.03,0,weatherlink.com 1.10,2013-02-09 01:29:00,
2013-02-08 21:44:00,71.4,-99.9,29.98,ESE,106,0.0,3.0,0,0.00,,,0.03,0,weatherlink.com 1.10,2013-02-09 01:44:00,
2013-02-08 21:59:00,71.5,-99.9,29.98,ESE,105,2.0,3.0,0,0.00,,,0.03,0,weatherlink.com 1.10,2013-02-09 01:59:00,
2013-02-08 22:14:00,71.5,-99.9,29.98,SE,127,1.0,3.0,0,0.00,,,0.03,0,weatherlink.com 1.10,2013-02-09 02:14:00,
2013-02-08 22:29:00,71.4,-99.9,29.98,East,97,1.0,5.0,0,0.00,,,0.03,0,weatherlink.com 1.10,2013-02-09 02:29:00,
2013-02-08 22:44:00,71.3,-99.9,29.99,East,90,0.0,3.0,0,0.00,,,0.03,0,weatherlink.com 1.10,2013-02-09 02:44:00,
2013-02-08 22:59:00,71.2,-99.9,29.98,East,84,1.0,5.0,0,0.00,,,0.03,0,weatherlink.com 1.10,2013-02-09 02:59:00,
2013-02-08 23:14:00,71.2,-99.9,29.98,ENE,76,1.0,3.0,0,0.00,,,0.03,0,weatherlink.com 1.10,2013-02-09 03:14:00,
2013-02-08 23:29:00,71.1,-99.9,29.98,ENE,76,0.0,2.0,0,0.00,,,0.03,0,weatherlink.com 1.10,2013-02-09 03:29:00,
2013-02-08 23:44:00,71.2,-99.9,29.98,ENE,76,0.0,1.0,0,0.00,,,0.03,0,weatherlink.com 1.10,2013-02-09 03:44:00,